Ukiah, CA

2:12 PM PST on November 17, 2019 (GMT -0800)
Ukiah Municipal

Weather History for KUKI - August, 2019

Change the Weather History Date:

Wednesday, August 21, 2019

  Actual Average Record
Temperature  
Mean Temperature 72 °F 72 °F  
Max Temperature 90 °F 91 °F 106 °F (1911)
Min Temperature 55 °F 53 °F 40 °F (1910)
Degree Days  
Heating Degree Days 0 0  
Month to date heating degree days 0 0  
Since 1 June heating degree days 7 33  
Since 1 July heating degree days 0 1  
Cooling Degree Days 8 7  
Month to date cooling degree days 232 172  
Year to date cooling degree days 836 615  
Since 1 June cooling degree days 770 563  
Growing Degree Days 22 (Base 50)    
Moisture  
Dew Point 54 °F    
Average Humidity 56    
Maximum Humidity 83    
Minimum Humidity 18    
Precipitation  
Precipitation 0.00 in 0.00 in 0.48 in (1968)
Month to date precipitation 0.07 0.02  
Year to date precipitation 34.76 23.44  
Snow  
Snow 0.00 in - - ()
Month to date snowfall 0.0  
Since 1 June snowfall 0.0  
Since 1 July snowfall 0.0  
Snow Depth 0.00 in    
Sea Level Pressure  
Sea Level Pressure 29.94 in    
Wind  
Wind Speed 4 mph ()    
Max Wind Speed 18 mph    
Max Gust Speed 26 mph    
Visibility 10.0 miles    
Events      
T = Trace of Precipitation, MM = Missing Value Source: Averaged Metar Reports

Daily Weather History Graph

Daily Weather History Graph

Search for Another Location

Airport or City:

Astronomy

Aug. 21, 2019 Rise Set
Actual Time 6:31 AM PDT 7:59 PM PDT
Civil Twilight 6:03 AM PDT 8:27 PM PDT
Nautical Twilight 5:29 AM PDT 9:01 PM PDT
Astronomical Twilight 4:53 AM PDT 9:37 PM PDT
Moon 11:22 PM PDT (8/21) 12:10 PM PDT (8/21)
Length of Visible Light 14h 24m
Length of Day
13h 28m
Waning Gibbous, 68% of the Moon is Illuminated
Aug 21
Waning Gibbous
Aug 23
Last Quarter
Aug 30
New
Sep 5
First Quarter
Sep 13
Full

Hourly Weather History & Observations

Time (PDT) Temp. Heat Index Dew Point Humidity Pressure Visibility Wind Dir Wind Speed Gust Speed Precip Events Conditions
12:56 AM 60.1 °F - 51.1 °F 72% 30.00 in 10.0 mi Calm Calm - N/A   Clear
1:56 AM 61.0 °F - 51.1 °F 70% 30.00 in 10.0 mi Calm Calm - N/A   Clear
2:56 AM 60.1 °F - 51.1 °F 72% 29.99 in 10.0 mi Calm Calm - N/A   Clear
3:56 AM 59.0 °F - 51.1 °F 75% 29.99 in 10.0 mi NW 3.5 mph - N/A   Clear
4:56 AM 57.9 °F - 51.1 °F 78% 29.99 in 10.0 mi Calm Calm - N/A   Clear
5:56 AM 55.9 °F - 50.0 °F 80% 29.99 in 10.0 mi Calm Calm - N/A   Clear
6:56 AM 55.0 °F - 50.0 °F 83% 30.00 in 10.0 mi Calm Calm - N/A   Clear
7:56 AM 59.0 °F - 51.1 °F 75% 30.01 in 10.0 mi Calm Calm - N/A   Clear
8:56 AM 64.0 °F - 52.0 °F 65% 30.00 in 10.0 mi Variable 3.5 mph - N/A   Clear
9:56 AM 72.0 °F - 53.1 °F 51% 29.99 in 10.0 mi Variable 3.5 mph - N/A   Clear
10:56 AM 79.0 °F - 51.1 °F 38% 29.97 in 10.0 mi Calm Calm - N/A   Clear
11:56 AM 88.0 °F - 39.9 °F 18% 29.95 in 10.0 mi NNW 11.5 mph - N/A   Clear
12:56 PM 89.1 °F - 43.0 °F 20% 29.94 in 10.0 mi NNW 15.0 mph 20.7 mph N/A   Clear
1:56 PM 89.1 °F - 48.0 °F 24% 29.93 in 10.0 mi NW 10.4 mph 24.2 mph N/A   Clear
2:56 PM 89.1 °F - 52.0 °F 28% 29.90 in 10.0 mi NW 12.7 mph 23.0 mph N/A   Clear
3:56 PM 88.0 °F 86.5 °F 55.9 °F 34% 29.88 in 10.0 mi WNW 11.5 mph 18.4 mph N/A   Clear
4:56 PM 89.1 °F 88.2 °F 59.0 °F 36% 29.87 in 10.0 mi NNW 12.7 mph 24.2 mph N/A   Clear
5:56 PM 86.0 °F 85.7 °F 60.1 °F 41% 29.88 in 10.0 mi North 10.4 mph 23.0 mph N/A   Clear
6:56 PM 82.9 °F 83.3 °F 61.0 °F 47% 29.87 in 10.0 mi North 8.1 mph - N/A   Clear
7:56 PM 77.0 °F - 63.0 °F 62% 29.89 in 10.0 mi NNE 15.0 mph 23.0 mph N/A   Clear
8:56 PM 75.0 °F - 63.0 °F 66% 29.89 in 10.0 mi North 6.9 mph - N/A   Clear
9:56 PM 75.0 °F - 64.0 °F 69% 29.90 in 10.0 mi North 10.4 mph - N/A   Clear
10:56 PM 73.9 °F - 64.0 °F 71% 29.89 in 10.0 mi NNE 8.1 mph - N/A   Clear
11:56 PM 73.0 °F - 64.0 °F 73% 29.88 in 10.0 mi NE 5.8 mph - N/A   Clear